160  
ASUS43 KOAX 232010  
RWRNE  
 
WEATHER ROUNDUP FOR NEBRASKA  
NATIONAL WEATHER SERVICE OMAHA NE  
300 PM CDT SUN JUL 23 2017  
 
NOTES: SATELLITE DATA IS BEING USED TO AUGMENT CLOUD COVER ABOVE  
12000 FEET.  
"FAIR" INDICATES FEW OR NO CLOUDS BELOW 12,000 FEET WITH NO  
SIGNIFICANT WEATHER AND/OR S TO VISIBILITY
.  
 
 
NEZ001>004-019>022-054>056-232100-  
NEBRASKA PANHANDLE  
 
CITY SKY/WX TMP DP RH WIND PRES REMARKS
 
SCOTTSBLUFF SUNNY 93 55 27 E10 30.07F HX 91  
ALLIANCE SUNNY 94 48 20 VRB6 30.08F HX 90  
CHADRON SUNNY 93 52 24 S9 30.03F HX 90  
GORDON FAIR 88 54 30 SE10 30.08F  
KIMBALL SUNNY 90 42 18 S9 30.15F  
SIDNEY SUNNY 95 43 16 S12 30.13F HX 91  

 
 
NEZ057>060-069>072-079>082-232100-  
SOUTHWEST NEBRASKA  
 
CITY SKY/WX TMP DP RH WIND PRES REMARKS
 
NORTH PLATTE SUNNY 93 45 19 N3 30.04F  
IMPERIAL SUNNY 95 43 16 VRB6 30.06F HX 91  
LEXINGTON SUNNY 88 63 42 SE6 30.04S  
MCCOOK SUNNY 94 53 25 VRB3 30.03F HX 91  
OGALLALA SUNNY 94 47 20 S5 30.07F HX 91  

 
 
NEZ005>010-023>029-035>040-094-232100-  
NORTH CENTRAL NEBRASKA  
 
CITY SKY/WX TMP DP RH WIND PRES REMARKS
 
VALENTINE SUNNY 93 42 17 VRB3 30.05F  
AINSWORTH SUNNY 87 53 31 E3 30.07S  
BROKEN BOW SUNNY 90 57 32 NE8 30.05S  
O'NEILL SUNNY 83 60 46 N6 30.05S  
ORD SUNNY 89 52 28 NE5 30.02F  
THEDFORD SUNNY 91 52 26 CALM 30.07F  

 
 
NEZ041-046>049-061>064-073>077-083>087-232100-  
SOUTH CENTRAL NEBRASKA  
 
CITY SKY/WX TMP DP RH WIND PRES REMARKS
 
GRAND ISLAND SUNNY 89 62 40 NE13 30.01F  
AURORA SUNNY 84 67 55 N10 30.00F  
HASTINGS SUNNY 87 68 52 N9 30.02F HX 90  
HEBRON SUNNY 92 66 41 N9 29.96F HX 95  
HOLDREGE SUNNY 87 62 43 N3 30.03F  
KEARNEY SUNNY 88 65 46 N9 30.03F HX 90  
YORK SUNNY 84 68 58 N8 30.00R  

 
 
NEZ011>018-030>034-042>045-232100-  
NORTHEAST NEBRASKA  
 
CITY SKY/WX TMP DP RH WIND PRES REMARKS
 
NORFOLK SUNNY 87 53 31 N7G21 30.00F  
ALBION SUNNY 87 60 40 N9 30.02S  
BLAIR SUNNY 86 63 46 N13 29.97S  
FREMONT SUNNY 86 59 39 N8 29.98S  
TEKAMAH SUNNY 87 61 41 N9G17 29.96F  
WAYNE SUNNY 86 56 35 N14G20 30.00S  

 
 
NEZ050>053-065>068-078-088>093-232100-  
SOUTHEAST NEBRASKA  
 
CITY SKY/WX TMP DP RH WIND PRES REMARKS
 
LINCOLN SUNNY 90 67 46 N9G20 29.96S HX 93  
OMAHA EPPLEY MOSUNNY 90 61 37 N16 29.95R HX 90  
BEATRICE SUNNY 92 70 47 N9 29.95S HX 97  
FALLS CITY MOSUNNY 90 77 65 VRB7 29.92S HX 103  
NEBRASKA CITY SUNNY 87 74 66 N5 29.95S HX 94  
PLATTSMOUTH SUNNY 88 65 47 NW12 29.94F HX 90  

 
 
NEZ044-045-051>053-067-232100-  
OMAHA AREA  
 
CITY SKY/WX TMP DP RH WIND PRES REMARKS
 
OMAHA EPPLEY MOSUNNY 90 61 37 N16 29.95R HX 90  
BLAIR SUNNY 86 63 46 N13 29.97S  
FREMONT SUNNY 86 59 39 N8 29.98S  
MILLARD SUNNY 90 62 39 N7 29.95F HX 90  
OFFUTT AFB SUNNY 90 64 42 N13 29.94S HX 91  
PLATTSMOUTH SUNNY 88 65 47 NW12 29.94F HX 90  
WAHOO FAIR 87 62 44 N10 29.97S  

 
 
 
CLICK HERE TO GO TO PREVIOUS BULLETINS.

The Nexlab NE Page Main Text Page